Location: D�derode
(51.8092°N, 10.1065°E)
Time: 17:03:29
(UTC+00:00)

BREEZE-M DEB (TANK) - Pass Details

Date: 18 April 2021
Orbit: 315 x 13085 km, 49.6° (Epoch: 11 May)

Event Time Altitude Azimuth Distance (km) Brightness Sun altitude
Rises 23:50:40 0° 269° (W) 9,461 9.0 -27.0°
Reaches altitude 10° 23:59:41 10° 270° (W) 6,356 8.1 -26.7°
Maximum altitude 00:13:28 75° 189° (S) 1,087 4.0 -26.3°
Enters shadow 00:16:04 26° 108° (ESE) 1,421 4.8 -26.2°
